TimeCST,TemperatureF,Dew PointF,Humidity,Sea Level PressureIn,VisibilityMPH,Wind Direction,Wind SpeedMPH,Gust SpeedMPH,PrecipitationIn,Events,Conditions,WindDirDegrees,DateUTC
12:15 AM,15.8,14.0,93,29.86,10.0,South,19.6,-,N/A,,Mostly Cloudy,170,2013-02-17 06:15:00
12:35 AM,15.8,14.0,93,29.86,9.0,South,19.6,-,N/A,,Scattered Clouds,180,2013-02-17 06:35:00
12:55 AM,15.8,14.0,93,29.85,10.0,South,17.3,24.2,N/A,,Overcast,170,2013-02-17 06:55:00
1:15 AM,15.8,14.0,93,29.84,10.0,South,17.3,-,N/A,,Overcast,180,2013-02-17 07:15:00
1:35 AM,15.8,14.0,93,29.84,10.0,South,18.4,-,N/A,,Overcast,180,2013-02-17 07:35:00
1:55 AM,17.6,14.0,86,29.83,10.0,South,17.3,-,N/A,,Mostly Cloudy,180,2013-02-17 07:55:00
2:15 AM,15.8,14.0,93,29.82,10.0,South,17.3,-,N/A,,Mostly Cloudy,170,2013-02-17 08:15:00
2:35 AM,15.8,14.0,93,29.81,10.0,South,19.6,-,N/A,,Overcast,170,2013-02-17 08:35:00
2:55 AM,15.8,14.0,93,29.80,10.0,South,19.6,-,N/A,,Overcast,170,2013-02-17 08:55:00
3:15 AM,15.8,14.0,93,29.78,10.0,South,21.9,26.5,N/A,,Overcast,170,2013-02-17 09:15:00
3:35 AM,15.8,14.0,93,29.76,10.0,South,21.9,26.5,N/A,,Overcast,170,2013-02-17 09:35:00
3:55 AM,15.8,14.0,93,29.76,10.0,South,21.9,-,N/A,,Overcast,170,2013-02-17 09:55:00
4:15 AM,15.8,14.0,93,29.75,9.0,South,21.9,26.5,N/A,,Overcast,170,2013-02-17 10:15:00
4:35 AM,15.8,14.0,93,29.74,8.0,South,19.6,-,N/A,,Overcast,170,2013-02-17 10:35:00
4:55 AM,15.8,14.0,93,29.74,7.0,South,20.7,24.2,N/A,,Overcast,170,2013-02-17 10:55:00
5:15 AM,15.8,15.8,100,29.72,6.0,South,21.9,26.5,N/A,,Overcast,170,2013-02-17 11:15:00
5:35 AM,15.8,15.8,100,29.71,5.0,South,23.0,-,N/A,,Overcast,170,2013-02-17 11:35:00
5:55 AM,15.8,15.8,100,29.70,5.0,South,21.9,-,N/A,,Overcast,170,2013-02-17 11:55:00
6:15 AM,17.6,15.8,93,29.69,6.0,South,20.7,26.5,N/A,,Overcast,170,2013-02-17 12:15:00
6:35 AM,17.6,15.8,93,29.67,5.0,South,20.7,27.6,N/A,,Overcast,170,2013-02-17 12:35:00
6:55 AM,17.6,15.8,93,29.66,6.0,South,24.2,29.9,N/A,,Overcast,170,2013-02-17 12:55:00
7:15 AM,17.6,15.8,93,29.65,5.0,South,25.3,31.1,N/A,,Overcast,170,2013-02-17 13:15:00
7:35 AM,17.6,17.6,100,29.63,4.0,South,23.0,31.1,N/A,,Overcast,180,2013-02-17 13:35:00
7:55 AM,19.4,17.6,93,29.63,3.0,South,25.3,32.2,N/A,,Overcast,180,2013-02-17 13:55:00
8:15 AM,19.4,17.6,93,29.62,3.0,South,24.2,31.1,N/A,,Overcast,180,2013-02-17 14:15:00
8:35 AM,19.4,19.4,100,29.61,2.5,South,24.2,33.4,N/A,,Overcast,180,2013-02-17 14:35:00
8:55 AM,21.2,19.4,93,29.59,1.5,South,26.5,32.2,N/A,,Overcast,180,2013-02-17 14:55:00
9:15 AM,21.2,19.4,93,29.59,1.5,South,26.5,35.7,N/A,,Overcast,180,2013-02-17 15:15:00
9:35 AM,23.0,19.4,86,29.58,2.0,South,26.5,39.1,N/A,,Overcast,180,2013-02-17 15:35:00
9:55 AM,23.0,19.4,86,29.57,2.5,South,24.2,34.5,N/A,,Overcast,180,2013-02-17 15:55:00
10:15 AM,23.0,19.4,86,29.56,3.0,South,31.1,35.7,N/A,,Overcast,180,2013-02-17 16:15:00
10:35 AM,23.0,19.4,86,29.55,2.5,South,27.6,36.8,N/A,,Mostly Cloudy,180,2013-02-17 16:35:00
11:15 AM,23.0,19.4,86,29.54,4.0,South,21.9,31.1,N/A,,Scattered Clouds,180,2013-02-17 17:15:00
11:35 AM,23.0,19.4,86,29.54,5.0,South,18.4,31.1,N/A,,Partly Cloudy,180,2013-02-17 17:35:00
11:55 AM,23.0,19.4,86,29.53,6.0,South,21.9,26.5,N/A,,Partly Cloudy,180,2013-02-17 17:55:00
12:15 PM,23.0,21.2,93,29.51,7.0,South,25.3,29.9,N/A,,Clear,170,2013-02-17 18:15:00
1:15 PM,24.8,23.0,93,29.47,8.0,South,25.3,31.1,N/A,,Partly Cloudy,180,2013-02-17 19:15:00
1:35 PM,24.8,23.0,93,29.49,8.0,South,21.9,28.8,N/A,,Clear,180,2013-02-17 19:35:00
1:55 PM,26.6,23.0,86,29.47,8.0,South,20.7,-,N/A,,Clear,170,2013-02-17 19:55:00
2:15 PM,26.6,24.8,93,29.47,8.0,South,21.9,-,N/A,,Clear,180,2013-02-17 20:15:00
2:35 PM,26.6,24.8,93,29.45,8.0,South,20.7,25.3,N/A,,Scattered Clouds,180,2013-02-17 20:35:00
2:55 PM,26.6,24.8,93,29.45,7.0,South,21.9,26.5,N/A,,Mostly Cloudy,170,2013-02-17 20:55:00
3:15 PM,28.4,24.8,86,29.44,7.0,South,19.6,-,N/A,,Scattered Clouds,180,2013-02-17 21:15:00
3:35 PM,28.4,26.6,93,29.44,8.0,South,19.6,-,N/A,,Partly Cloudy,170,2013-02-17 21:35:00
3:55 PM,28.4,26.6,93,29.44,7.0,South,18.4,-,N/A,,Clear,170,2013-02-17 21:55:00
4:15 PM,28.4,26.6,93,29.44,7.0,South,17.3,21.9,N/A,,Clear,170,2013-02-17 22:15:00
4:35 PM,28.4,26.6,93,29.45,8.0,South,13.8,-,N/A,,Partly Cloudy,170,2013-02-17 22:35:00
4:55 PM,28.4,26.6,93,29.45,7.0,South,13.8,-,N/A,,Scattered Clouds,170,2013-02-17 22:55:00
5:15 PM,28.4,26.6,93,29.46,6.0,South,13.8,-,N/A,,Partly Cloudy,170,2013-02-17 23:15:00
5:35 PM,28.4,26.6,93,29.46,6.0,South,15.0,-,N/A,,Clear,170,2013-02-17 23:35:00
5:55 PM,28.4,26.6,93,29.47,6.0,South,15.0,-,N/A,,Clear,170,2013-02-17 23:55:00
6:15 PM,28.4,26.6,93,29.47,7.0,South,13.8,-,N/A,,Partly Cloudy,170,2013-02-18 00:15:00
6:35 PM,28.4,26.6,93,29.48,8.0,South,12.7,-,N/A,,Partly Cloudy,170,2013-02-18 00:35:00
6:55 PM,28.4,26.6,93,29.49,7.0,South,8.1,-,N/A,,Clear,180,2013-02-18 00:55:00
7:15 PM,30.2,28.4,93,29.49,5.0,South,10.4,-,N/A,,Clear,170,2013-02-18 01:15:00
7:35 PM,28.4,28.4,100,29.49,1.2,South,11.5,-,N/A,Snow,Light Snow,180,2013-02-18 01:35:00
7:55 PM,30.2,30.2,100,29.49,1.8,South,15.0,-,N/A,Snow,Light Snow,180,2013-02-18 01:55:00
8:15 PM,28.4,28.4,100,29.49,2.0,South,11.5,-,N/A,Snow,Light Snow,180,2013-02-18 02:15:00
8:35 PM,28.4,28.4,100,29.49,1.5,South,9.2,-,N/A,Snow,Light Snow,180,2013-02-18 02:35:00
8:55 PM,28.4,28.4,100,29.49,1.5,South,8.1,-,N/A,Snow,Light Snow,190,2013-02-18 02:55:00
9:15 PM,28.4,28.4,100,29.50,1.5,South,6.9,-,N/A,Snow,Light Snow,180,2013-02-18 03:15:00
9:35 PM,26.6,26.6,100,29.52,0.8,North,9.2,19.6,N/A,Snow,Light Snow,360,2013-02-18 03:35:00
9:55 PM,26.6,26.6,100,29.52,0.8,North,13.8,-,N/A,Snow,Light Snow,350,2013-02-18 03:55:00
10:15 PM,24.8,24.8,100,29.51,0.5,North,13.8,-,N/A,Snow,Snow,350,2013-02-18 04:15:00
10:35 PM,24.8,24.8,100,29.51,0.5,NNW,15.0,-,N/A,Snow,Snow,340,2013-02-18 04:35:00
10:55 PM,24.8,24.8,100,29.51,1.0,NNW,16.1,-,N/A,Snow,Light Snow,340,2013-02-18 04:55:00
11:15 PM,24.8,23.0,93,29.51,3.0,NNW,16.1,-,N/A,Snow,Light Snow,340,2013-02-18 05:15:00
11:35 PM,24.8,23.0,93,29.51,3.0,NNW,16.1,-,N/A,Snow,Light Snow,340,2013-02-18 05:35:00
11:55 PM,24.8,23.0,93,29.52,1.5,NNW,17.3,-,N/A,Snow,Light Snow,340,2013-02-18 05:55:00